Other Public Products
Issued by NWS Charleston, SC

Current Version | Previous Version | Graphics & Text | Print | Product List | Glossary On
Versions: 1 2 3 4 5 6 7 8 9 10 11 12 13 14 15 16 17 18 19 20 21 22 23 24 25 26 27 28 29 30 31 32 33 34 35 36 37 38 39 40 41 42 43 44 45 46 47 48 49 50
071 FPUS82 KCHS 101111 OPUCHS TEST...KCHS/KSAV Gateway Observations...TEST National Weather Service Charleston SC 600 AM EST SUN DEC 10 2017 NOTE: "fair" indicates few or no clouds below 12,000 feet with no significant weather and/or obstructions to visibility. SCZ050-WAZ558-NCZ071-TXZ119-213-PAZ071-DCZ001-FLZ074-172-MI076- NYZ176-178-MAZ016-IL014-TNZ027-NJZ106-GAZ044-MD014-101200- ...Gateway Observations for Charleston International... CITY SKY/WX TMP DP RH WIND PRES REMARKS Chas Airport CLEAR 31 28 89 NW7 30.21R WCI 24 Seattle CLOUDY 36 30 79 NW5 30.44R WCI 32 Charlotte CLEAR 27 21 78 SW6 30.14R WCI 20 Dallas DFW CLEAR 37 27 67 W5 30.33F WCI 33 Dallas Love CLEAR 38 28 67 CALM 30.36F Philladelphia MOCLDY 29 22 75 W12 29.90R WCI 19 Wash National MOCLDY 34 25 69 SW6 29.98R WCI 29 Baltimore MOCLDY 26 24 92 W5 29.94R WCI 20 Miami PTCLDY 51 38 60 NW12G21 30.20R Detroit CLOUDY 25 20 81 SW9 29.94S WCI 15 Newark CLOUDY 29 22 75 W12 29.83R WCI 19 Laguardia MOCLDY 32 22 66 NW16G23 29.81R WCI 21 J F K MOCLDY 31 25 78 W13 29.82R WCI 21 Boston Logan CLOUDY 32 28 85 W10 29.67R WCI 24 Ft. Lauderdale CLEAR 48 33 56 NW14G23 30.20R Chicago O`Hare CLOUDY 23 14 68 SW10 29.95F WCI 12 Chicago Midway CLOUDY 23 15 71 SW9 29.97F WCI 13 Houston Bush PTCLDY 39 34 82 CALM 30.38S Houston Hobby CLEAR 37 34 89 CALM 30.37F Nashville CLEAR 23 19 85 S5 30.26R WCI 17 Atlanta CLEAR 26 21 81 W8 30.23R WCI 18 $$ GAZ044-118-TXZ119-213-NCZ071-DCZ001-MDZ014-506-PAZ021-071-NJZ106- NYZ176-178-MAZ106-OHZ011-021-055-MIZ076-KYZ091-ILZ014-INZ047- MNZ060-ONZ431-101200- ...Gateway Observations for Savannah International... CITY SKY/WX TMP DP RH WIND PRES REMARKS Savannah Arpt CLEAR 30 27 88 W5 30.25R WCI 25 Atlanta CLEAR 26 21 81 W8 30.23R WCI 18 Charlotte CLEAR 27 21 78 SW6 30.14R WCI 20 Dallas DFW CLEAR 37 27 67 W5 30.33F WCI 33 Houston Bush PTCLDY 39 34 82 CALM 30.38S Wash National MOCLDY 34 25 69 SW6 29.98R WCI 29 Wash Dulles CLOUDY 30 25 81 SW3 29.97R Baltimore MOCLDY 26 24 92 W5 29.94R WCI 20 Philadelphia MOCLDY 29 22 75 W12 29.90R WCI 19 Newark CLOUDY 29 22 75 W12 29.83R WCI 19 Laguardia MOCLDY 32 22 66 NW16G23 29.81R WCI 21 J F K MOCLDY 31 25 78 W13 29.82R WCI 21 Boston CLOUDY 32 28 85 W10 29.67R WCI 24 Pittsburg FLURRIES 30 23 75 W9 29.94R WCI 22 Akron CLOUDY 27 19 72 W12 29.95R WCI 17 Cleveland PTCLDY 25 20 81 W12 29.98R WCI 14 Cincinnati CLEAR 22 16 78 SW8 30.11R WCI 12 Columbus CLOUDY 25 23 93 W8 30.05S WCI 16 Detroit CLOUDY 25 20 81 SW9 29.94S WCI 15 Chicago O`Hare CLOUDY 23 14 68 SW10 29.95F WCI 12 Minneapolis CLOUDY 23 20 88 NW8 29.84R WCI 14 Indianapolis PTCLDY 20 15 81 S8 30.09F WCI 10 Toronto Canada MOCLDY 25 18 74 W10 29.79S WCI 15 $$

USA.gov is the U.S. government's official web portal to all federal, state and local government web resources and services.